SCP
0 0 0 0 0 0 0 0 0 0 0 0 0 0 0 0 0 0 0 0 0 0 0 0 0 0 0 0 0 0 0 0 0 0 0 0 0 0 0 0 0 0 0 0
0 0 0 0 0 0 0 0 0 0 0 0 0 0 0 0 0 0 0 0 0 0 0 0 0 0 0 0 0 0 0 0 0 0 0 0 0 0 0 0 0 0 0 0
0 0 0 0 0 0 0 0 0 0 0 0 0 0 0 0 0 0 0 0 0 0 0 0 0 0 0 0 0 0 0 0 0 0 0 0 0 0 0 0 0 0 0 0
0 0 0 0 0 0 0 0 0 0 0 0 0 0 0 0 0 0 0 0 0 0 0 0 0 0 0 0 0 0 0 0 0 0 0 0 0 0 0 0 0 0 0 0
0 0 0 0 0 0 0 0 0 0 0 0 0 0 0 0 0 0 0 0 0 0 0 0 0 0 0 0 0 0 0 0 0 0 0 0 0 0 0 0 0 0 0 0
0 0 0 0 0 0 0 0 0 0 0 0 0 0 0 0 0 0 0 0 0 0 0 0 0 0 0 0 0 0 0 0 0 0 0 0 0 0 0 0 0 0 0 0
0 0 0 0 0 0 0 0 0 0 0 0 0 0 0 0 0 0 0 0 0 0 0 0 0 0 0 0 0 0 0 0 0 0 0 0 0 0 0 0 0 0 0 0
0 0 0 0 0 0 0 0 0 0 0 0 0 0 0 0 0 0 0 0 0 0 0 0 0 0 0 0 0 0 0 0 0 0 0 0 0 0 0 0 -0 -0 0 0
0 0 0 0 0 0 0 0 0 0 0 0 0 0 0 0 0 0 0 0 0 0 0 0 0 0 0 0 0 0 0 0 0 0 0 0 0 0 0 0 -0 -0 0 0
0 0 0 0 0 0 0 0 0 0 0 0 0 0 0 0 0 0 0 0 0 0 0 0 0 0 0 0 0 0 0 0 0 0 0 0 0 0 0 0 0 0 0 0
0 0 0 0 0 0 0 0 0 0 0 0 0 0 0 0 0 0 0 0 0 0 0 0 0 0 0 0 0 0 0 0 0 0 0 0 0 0 0 0 0 0 0 0
0 0 0 0 0 0 0 0 0 0 0 0 0 0 0 0 0 0 0 0 0 0 0 0 0 0 0 0 0 0 0 0 0 0 0 0 0 0 0 0 0 0 0 0
0 0 0 0 0 0 0 0 0 0 0 0 0 0 0 0 0 0 0 0 0 0 0 0 0 0 0 0 0 0 0 0 0 0 0 0 0 0 0 0 0 0 0 0
0 0 0 0 0 0 0 0 0 0 0 0 0 0 0 0 0 0 0 0 0 0 0 0 0 0 0 0 0 0 0 0 0 0 0 0 0 0 0 0 0 0 0 0
0 0 0 0 0 0 0 0 0 0 0 0 0 0 0 0 0 0 0 0 0 0 0 0 0 0 0 0 0 0 0 0 0 0 0 0 0 0 0 0 0 0 0 0
0 0 0 0 0 0 0 0 0 0 0 0 0 0 0 0 0 0 0 0 0 0 0 0 0 0 0 0 0 0 0 0 0 0 0 0 0 0 0 0 0 0 0 0
0 0 0 0 0 0 0 0 0 0 0 0 0 0 0 0 0 0 0 0 0 0 0 0 0 0 0 0 0 0 0 0 0 0 0 0 0 0 0 0 0 0 0 0
0 0 0 0 0 0 0 0 0 0 0 0 0 0 0 0 0 0 0 0 0 0 0 0 0 0 0 0 0 0 0 0 0 0 0 0 0 0 0 0 0 0 0 0
0 0 0 0 0 0 0 0 0 0 0 0 0 0 0 0 0 0 0 0 0 0 0 0 0 0 0 0 0 0 0 0 0 0 0 0 0 0 0 0 0 0 0 0
0 0 0 0 0 0 0 0 0 0 0 0 0 0 0 0 0 0 0 0 0 0 0 0 0 0 0 0 0 0 0 0 0 0 0 0 0 0 0 0 0 0 0 0
0 0 0 0 0 0 0 0 0 0 0 0 0 0 0 0 0 0 0 0 0 0 0 0 0 0 0 0 0 0 0 0 0 0 0 0 0 0 0 0 0 0 0 0
0 0 0 0 0 0 0 0 0 0 0 0 0 0 0 0 0 0 0 0 0 0 0 0 0 0 0 0 0 0 0 0 0 0 0 0 0 0 0 0 0 0 0 0
0 0 0 0 0 0 0 0 0 0 0 0 0 0 0 0 0 0 0 0 0 0 0 0 0 0 0 0 0 0 0 0 0 0 0 0 0 0 0 0 0 0 0 0
0 0 0 0 0 0 0 0 0 0 0 0 0 0 0 0 0 0 0 0 0 0 0 0 0 0 0 0 0 0 0 0 0 0 0 0 0 0 0 0 0 0 0 0
0 0 0 0 0 0 0 0 0 0 0 0 0 0 0 0 0 0 0 0 0 0 0 0 0 0 0 0 0 0 0 0 0 0 0 0 0 0 0 0 0 0 0 0
0 0 0 0 0 0 0 0 0 0 0 0 0 0 0 0 0 0 0 0 0 0 0 0 0 0 0 0 0 0 0 0 0 0 0 0 0 0 0 0 0 0 0 0
0 0 0 0 0 0 0 0 0 0 0 0 0 0 0 0 0 0 0 0 0 0 0 0 0 0 0 0 0 0 0 0 0 0 0 0 0 0 0 0 0 0 0 0
Wind_Speed
1 2 1 2 2 2 4 5 5 5 5 8 7 8 9 7 6 10 11 11 11 11 9 10 10 11 12 12 13 14 14 15 15 14 14 14 14 15 16 16 17 16 15 14
1 2 2 2 2 2 3 2 3 5 7 4 6 6 8 7 8 10 11 11 12 13 11 11 11 12 13 12 13 13 13 14 15 15 15 15 14 15 15 15 15 15 15 14
3 4 2 4 5 4 3 4 4 5 6 6 8 9 9 5 7 9 10 11 12 11 10 10 9 11 11 12 12 12 12 13 14 14 15 15 15 15 15 14 14 14 14 14
2 5 4 3 1 3 2 5 5 5 5 6 6 9 2 3 5 6 8 9 9 9 10 8 8 9 10 10 11 12 12 12 13 13 14 14 13 14 13 11 11 11 12 13
2 2 8 3 2 3 1 5 2 4 6 5 5 6 0 3 4 4 4 5 6 6 7 8 9 10 10 10 10 11 11 12 12 12 13 13 13 13 12 10 10 10 10 12
3 1 7 2 3 2 2 4 2 3 4 4 5 6 3 4 5 3 4 5 6 7 7 8 9 9 9 10 10 11 12 12 12 12 13 11 12 12 12 11 11 11 10 10
4 5 9 4 2 4 2 4 1 1 1 2 2 4 5 5 4 4 5 6 6 7 7 8 9 9 9 10 10 12 12 12 12 12 11 9 10 10 11 12 12 10 10 10
5 3 9 4 6 6 6 2 1 0 0 1 3 4 4 5 6 7 7 7 7 7 9 9 8 8 10 11 11 12 12 12 12 11 11 11 9 9 9 10 10 9 8 9
10 7 3 4 5 4 4 2 1 2 1 1 2 2 4 5 5 5 7 8 7 7 9 9 8 8 10 12 12 12 12 12 12 12 10 9 8 8 8 7 8 9 8 9
4 6 4 3 2 3 3 3 3 3 3 2 0 1 3 5 5 6 7 7 7 9 10 11 10 11 10 12 12 13 14 13 12 11 10 8 9 8 7 7 7 9 8 8
4 3 2 2 3 4 4 5 5 5 4 3 2 2 3 4 5 6 8 8 8 9 11 12 11 12 13 13 12 13 14 13 13 12 10 8 8 7 10 7 9 10 6 5
7 6 6 5 3 5 6 5 5 5 4 3 3 2 3 4 4 5 7 7 9 10 12 13 13 13 13 12 12 13 14 14 12 11 10 10 10 10 14 14 18 17 15 12
4 4 5 6 5 4 6 5 5 5 4 3 2 2 2 3 4 6 7 8 10 12 13 13 13 14 14 13 14 14 15 15 12 12 11 11 11 10 10 10 14 15 14 14
4 6 5 4 4 5 7 7 7 6 5 3 1 2 3 4 5 7 8 9 11 12 13 12 13 14 14 14 15 15 15 16 15 11 11 10 10 10 8 8 7 6 9 13
4 5 7 7 8 7 7 7 6 4 3 2 2 3 4 5 7 8 9 10 11 12 12 12 13 15 15 15 16 16 14 12 11 10 10 10 10 9 7 7 7 6 5 7
7 7 8 8 8 7 6 6 5 4 3 1 1 3 4 5 7 8 9 9 10 12 12 13 13 15 15 15 16 13 11 20 19 12 10 10 10 9 8 7 6 5 4 4
11 8 7 7 8 7 6 5 6 5 4 2 1 3 5 6 7 8 9 9 9 10 11 11 14 15 15 14 13 10 10 13 20 13 10 10 10 9 8 7 6 5 4 6
7 8 8 8 9 8 7 7 6 6 4 2 0 2 4 5 7 10 11 12 11 10 8 10 13 14 13 13 11 8 9 10 10 11 11 11 11 9 8 7 6 5 3 4
7 8 7 8 9 9 8 7 6 5 4 3 1 2 4 5 7 8 9 9 9 11 12 13 20 15 13 15 15 7 9 11 11 11 10 15 14 10 9 8 6 4 2 1
8 8 8 8 8 8 8 7 7 5 4 3 1 2 5 6 7 8 8 6 5 7 12 13 12 11 12 12 16 8 10 11 12 11 11 11 11 12 11 11 8 6 3 1
10 9 9 9 8 8 8 8 7 6 4 3 1 2 5 7 7 7 7 7 7 11 12 16 11 11 10 13 14 9 10 11 11 10 10 10 10 11 11 11 10 8 6 4
9 9 9 9 9 8 6 6 6 6 4 2 1 3 5 7 7 6 5 5 8 16 10 7 9 15 17 15 9 10 10 11 10 8 8 9 9 9 10 10 9 8 7 5
10 9 10 9 9 8 6 5 6 5 4 3 2 3 4 5 5 5 7 6 7 15 10 7 15 21 20 11 9 10 11 12 10 9 8 7 7 7 7 8 8 7 6 5
10 10 9 8 8 8 7 6 5 4 3 2 3 4 4 4 4 3 5 12 15 14 7 12 20 21 17 8 9 10 11 11 10 8 7 6 5 5 6 6 6 6 6 6
10 9 9 10 9 7 7 6 5 4 3 3 4 4 4 3 4 5 6 7 12 11 7 12 18 19 11 8 9 10 11 12 13 10 7 6 5 5 5 5 5 5 5 5
9 9 8 7 6 6 6 6 5 4 3 3 2 2 3 3 4 4 5 6 7 10 7 6 8 11 8 8 9 11 11 12 12 11 9 7 6 5 5 6 7 6 5 5
7 7 6 5 4 6 6 6 5 5 4 3 3 2 2 3 3 4 5 5 5 5 5 5 6 7 7 8 9 10 10 11 12 12 12 9 7 6 6 7 6 6 6 6
Wind_Direction
289 31 282 239 260 237 185 191 209 253 271 287 297 307 313 325 339 346 348 348 350 346 343 339 339 338 338 335 337 337 336 337 336 335 333 333 337 339 338 339 340 338 339 344
274 359 296 222 211 175 166 191 238 269 279 265 295 313 322 334 347 347 345 347 347 344 342 339 338 337 336 332 332 332 332 333 335 337 338 338 339 341 340 339 338 340 341 343
286 317 351 269 205 182 204 222 226 250 262 304 319 325 324 343 358 347 344 346 344 340 336 332 331 333 330 327 325 328 329 330 334 336 338 339 342 342 340 337 337 341 342 345
328 16 295 274 146 171 237 262 235 237 271 299 303 308 332 55 359 343 343 341 334 331 328 323 321 326 324 322 323 326 327 329 332 335 337 338 342 341 337 334 335 337 338 342
82 319 282 285 236 192 232 289 246 236 283 307 318 313 357 56 9 349 342 329 319 318 314 316 320 323 324 320 322 326 330 332 332 332 335 338 343 339 336 333 334 337 340 343
120 266 265 254 173 140 102 295 266 244 291 318 348 340 327 24 5 360 344 326 318 316 314 317 317 322 322 322 325 329 331 330 329 330 332 335 339 336 336 337 341 343 343 344
164 233 267 238 159 122 139 264 275 302 301 322 292 263 327 2 356 353 339 322 319 317 317 313 315 321 320 319 319 321 325 326 328 327 322 331 334 331 334 340 341 342 342 340
153 210 266 204 146 176 214 215 144 151 173 294 290 314 342 347 343 345 334 324 322 322 319 315 313 318 317 316 313 316 319 321 321 321 319 332 327 324 329 333 337 334 339 343
189 209 249 183 185 191 160 147 135 149 95 28 323 331 335 333 335 333 325 323 322 318 315 314 312 313 313 312 313 316 316 314 312 313 312 313 316 317 323 327 332 333 343 346
234 255 237 217 162 120 105 115 114 109 106 105 99 343 341 335 337 332 326 326 322 322 320 315 313 314 309 308 313 314 313 311 310 309 306 302 308 316 318 318 319 324 340 341
242 252 167 179 164 135 110 108 108 97 93 92 89 21 349 328 324 324 330 325 324 319 312 310 314 313 312 313 312 311 310 308 310 311 305 299 299 298 305 301 306 317 326 322
212 199 167 185 156 138 139 141 134 126 107 78 63 24 344 324 315 314 317 316 317 314 315 315 315 312 311 311 311 310 312 314 314 314 312 311 307 302 299 306 317 321 321 325
164 140 125 122 110 115 126 121 110 110 114 111 79 22 345 319 311 314 312 314 315 313 314 314 315 313 313 315 315 313 312 314 313 315 313 310 308 307 306 309 315 321 323 325
148 119 121 143 135 117 113 111 105 96 94 101 86 20 347 324 316 318 314 312 310 311 314 315 316 314 314 316 316 315 315 315 318 311 310 311 314 312 307 308 313 314 319 321
142 128 136 127 117 116 118 119 119 122 124 93 37 9 344 329 317 310 307 310 315 316 317 318 317 315 316 318 320 321 321 319 320 323 326 325 322 319 311 306 304 303 303 312
111 101 116 131 141 144 142 144 148 156 155 136 3 340 323 307 299 300 305 313 319 318 316 316 316 316 319 322 325 324 323 332 340 338 332 326 322 317 311 305 298 290 285 286
134 146 157 163 167 165 162 160 158 158 160 166 297 318 319 317 315 319 322 323 314 303 302 308 316 316 320 326 325 326 332 334 340 338 328 325 322 320 317 312 301 290 276 275
163 166 168 164 166 157 148 141 144 151 161 167 138 341 335 331 324 318 320 322 321 319 316 321 318 323 329 328 331 340 336 332 333 334 334 334 339 337 329 321 312 299 280 289
127 129 130 134 141 144 145 147 151 150 147 133 76 342 314 304 301 303 310 316 319 327 324 320 332 340 329 333 349 338 335 337 339 339 341 348 353 348 346 342 336 324 297 281
119 118 115 116 121 131 141 145 146 146 147 136 89 333 320 313 309 309 310 298 285 292 302 326 341 330 328 341 355 342 341 342 342 345 351 356 358 358 358 360 3 7 7 5
135 133 132 134 133 138 147 149 150 153 155 153 150 309 304 302 307 312 318 319 320 319 328 346 340 328 342 356 353 345 344 344 345 350 356 358 359 1 4 6 9 14 17 17
147 146 148 147 144 144 147 147 150 152 157 174 240 293 304 311 317 312 288 271 305 327 344 338 329 348 1 1 347 345 345 344 345 351 357 359 359 360 2 4 6 9 10 7
154 154 156 157 153 145 139 148 158 160 169 190 241 287 296 296 300 310 321 319 318 334 350 330 345 358 5 1 348 346 345 344 344 351 354 354 353 352 352 355 356 356 354 354
155 154 150 137 129 138 158 172 169 167 178 215 251 265 276 296 300 270 280 314 329 342 349 345 358 3 6 357 348 346 344 342 343 346 345 345 343 340 341 342 341 340 341 344
150 144 144 149 161 173 171 160 161 175 197 233 258 263 261 258 272 298 307 310 327 347 347 349 358 2 1 348 349 347 343 344 348 346 338 337 336 332 328 327 327 325 325 325
154 161 167 174 168 158 155 161 172 182 187 207 240 259 281 289 289 295 304 312 326 348 349 343 344 351 350 349 349 347 343 342 344 344 338 333 326 323 319 317 313 308 305 303
134 141 145 149 158 161 163 172 177 179 182 189 212 253 290 305 314 322 324 328 334 338 340 345 346 345 346 348 348 348 345 343 345 346 345 339 328 317 308 304 298 293 291 289